Temperature
19 19 19 18 18 18 18 18 18 17 18 17 17 17 17 17 17 16 16 16 16 16 16 16 16 16 16 16 15 16 16 16 16 16 17 17 17 17 17 17 17 17 17
19 18 18 18 18 17 17 17 17 18 17 17 17 17 17 17 17 17 16 16 15 15 16 15 15 15 15 15 15 16 16 16 16 16 17 17 17 17 17 17 17 17 17
19 18 18 17 17 17 17 17 17 17 17 17 17 17 17 17 17 17 16 16 15 15 15 15 15 15 15 15 15 15 15 16 16 16 16 17 17 17 17 17 16 16 16
20 19 18 18 17 17 17 17 17 17 17 17 17 17 17 17 17 16 16 16 15 15 15 15 15 15 15 15 15 15 15 15 16 16 16 16 16 17 16 16 16 16 16
20 19 18 18 17 17 17 17 17 17 17 17 17 17 17 17 17 17 16 16 16 15 15 15 15 15 15 15 15 15 15 15 15 16 16 16 17 17 17 17 16 16 16
21 19 19 18 18 17 17 17 17 17 17 17 17 17 17 17 17 16 16 16 16 16 15 15 15 15 14 14 14 15 15 15 15 16 16 16 16 16 17 17 17 17 17
21 20 19 18 18 17 17 17 17 17 17 17 17 17 17 17 17 17 16 16 16 16 16 16 15 15 14 14 14 14 14 14 15 15 15 15 16 16 16 16 16 17 17
22 20 19 18 18 17 17 17 17 17 17 17 17 17 17 17 17 17 17 17 17 17 16 16 16 15 15 15 15 14 14 14 15 15 15 15 15 15 15 15 16 16 16
22 21 20 19 18 18 18 18 17 18 18 18 18 17 18 17 17 17 17 17 17 17 17 16 16 16 15 15 14 14 14 14 14 14 14 15 15 15 15 15 15 15 15
23 22 21 20 19 19 18 18 18 18 18 18 18 18 18 18 17 17 17 17 17 17 17 16 16 16 15 15 15 15 15 15 15 15 14 15 15 15 15 15 15 15 15
24 23 22 21 20 19 19 18 18 18 18 18 18 18 18 18 18 18 17 17 17 17 17 17 16 16 16 16 16 16 15 15 15 15 15 15 15 15 15 15 15 14 14
25 24 23 22 21 20 20 19 19 18 18 18 18 18 18 18 18 18 18 18 17 17 17 17 17 16 16 16 16 16 16 16 16 16 15 15 15 16 16 15 15 15 14
25 24 23 22 22 21 20 20 19 19 19 19 18 18 18 18 18 18 18 18 18 18 17 17 17 17 17 16 17 17 17 16 16 16 16 16 16 16 16 16 16 15 15
25 24 24 23 22 22 21 21 20 20 19 19 19 18 18 18 18 18 18 18 18 18 18 17 17 17 17 17 17 17 17 17 17 16 16 16 16 16 16 16 16 15 15
24 24 23 23 22 22 22 21 21 20 20 20 19 19 19 18 18 18 18 18 18 18 18 17 17 17 17 17 17 17 17 17 17 16 16 16 16 16 15 15 15 15 14
23 23 23 22 22 22 21 21 21 21 20 20 19 19 18 18 18 18 17 17 17 17 17 17 17 17 17 17 17 17 16 16 16 16 16 16 16 16 15 15 15 15 14
22 21 21 21 21 21 21 20 20 20 20 19 19 19 18 18 17 17 17 17 17 17 17 16 16 16 16 16 16 16 16 16 16 15 15 15 15 15 15 15 15 15 15
20 20 19 19 19 19 19 19 19 19 19 19 18 18 18 17 17 17 17 16 16 16 16 16 16 16 16 15 15 15 15 15 15 15 14 14 14 14 14 14 14 14 14
18 18 18 17 18 18 18 18 18 17 17 17 16 17 17 17 16 16 16 16 16 15 15 15 15 15 15 15 14 14 14 14 14 14 13 13 13 13 13 13 13 13 13
16 16 16 16 16 16 16 16 16 16 16 15 15 15 15 15 15 15 15 15 15 15 14 14 14 14 14 14 14 13 13 13 12 12 12 12 12 12 12 12 12 12 13
15 15 15 15 15 15 15 15 15 15 14 14 14 14 14 14 14 14 14 14 14 14 14 13 13 13 13 13 13 12 12 12 11 11 11 11 11 11 12 12 12 12 12
15 15 15 14 14 14 14 14 14 13 13 13 13 13 13 13 13 13 12 12 13 13 13 13 13 13 12 12 12 11 11 11 10 10 10 10 10 10 11 11 11 11 11
14 14 14 13 13 13 13 13 12 12 12 12 12 12 12 12 12 12 12 12 12 12 12 12 12 11 11 11 10 10 10 9 9 9 9 9 9 9 10 10 10 10 10
14 13 13 13 12 12 12 11 11 11 11 11 11 11 11 11 12 12 11 11 11 11 11 10 10 10 10 10 9 9 9 9 8 8 8 9 9 9 9 9 9 10 10
13 13 12 12 12 11 11 11 11 11 11 11 11 11 11 11 11 11 11 11 11 10 10 10 9 9 9 8 8 8 7 7 7 7 7 7 7 7 8 8 9 9 9
13 13 12 12 12 11 11 11 11 10 10 10 10 10 11 11 11 11 11 11 11 10 10 10 9 9 8 8 7 7 7 6 6 6 6 6 6 6 7 7 8 8 8
Wind_Speed
9 9 10 11 11 11 11 11 12 10 8 7 6 6 5 4 5 6 7 5 5 4 4 4 2 2 4 4 3 2 1 2 0 2 2 3 4 3 2 1 0 1 3
11 12 11 11 12 11 11 11 12 11 8 6 5 4 5 4 5 5 6 5 4 3 3 3 1 4 3 3 2 2 3 1 2 1 2 3 3 2 3 3 2 1 0
13 13 13 12 11 12 12 12 12 11 9 8 5 5 3 2 5 6 5 4 4 4 5 3 3 2 1 3 2 3 2 3 1 1 3 2 2 3 3 1 3 2 1
14 14 14 13 13 13 12 12 11 10 8 8 7 8 6 5 6 5 6 5 4 5 5 4 3 3 3 3 0 3 3 2 2 1 1 1 2 2 1 2 3 2 1
13 14 14 13 13 13 12 12 11 10 9 8 7 7 5 4 5 5 8 6 5 4 5 5 3 0 2 4 4 3 4 3 4 3 1 1 1 3 1 2 3 3 3
13 13 13 12 11 12 11 12 12 11 10 8 8 7 5 4 5 6 8 5 5 5 6 6 4 2 2 3 2 1 1 3 4 4 4 2 1 2 2 1 2 2 3
13 14 14 14 13 13 13 13 13 12 11 9 8 8 6 5 5 5 6 6 5 6 8 6 5 3 2 3 2 2 0 0 1 3 4 4 4 3 3 3 3 2 0
14 14 14 14 14 14 14 14 14 12 11 10 8 7 7 5 5 6 5 6 4 5 9 7 6 5 5 5 4 3 4 3 2 3 2 3 4 3 3 2 3 4 3
14 15 15 15 15 15 14 14 14 12 12 11 9 8 7 7 5 6 6 5 4 4 9 8 7 6 6 4 4 4 4 4 4 4 5 4 4 3 3 2 2 2 4
14 15 15 15 15 15 14 14 14 12 11 11 10 10 9 8 7 6 7 6 5 4 8 8 8 7 7 6 5 5 5 5 4 4 3 3 4 3 3 3 3 3 3
15 15 15 15 15 15 15 13 13 12 12 11 10 9 10 10 9 8 7 6 6 6 6 7 7 8 8 8 7 7 6 7 7 6 6 6 6 5 4 3 3 4 4
14 15 15 15 15 16 16 14 13 13 12 11 11 10 9 10 10 10 9 8 7 7 7 8 8 8 9 8 8 9 9 8 8 8 8 7 7 8 6 5 5 5 5
11 13 14 14 14 14 14 15 15 14 14 13 12 11 10 10 9 9 9 9 9 8 8 9 9 9 9 9 9 9 9 9 9 9 9 9 9 8 7 7 7 6 7
9 10 11 10 10 10 11 12 13 13 13 12 11 11 10 10 9 9 8 9 9 9 9 9 9 9 9 9 9 10 10 10 10 9 9 9 10 10 9 9 8 8 7
6 7 9 9 9 8 8 8 9 8 9 9 9 9 9 9 8 8 8 8 9 11 9 9 9 9 9 10 10 10 11 10 10 10 10 11 12 14 12 11 9 9 9
6 6 7 8 8 7 7 6 5 5 6 6 6 6 6 5 6 6 6 7 7 8 8 8 9 9 11 12 13 11 9 9 9 10 10 11 13 15 17 18 16 13 11
7 8 7 7 7 6 6 6 5 5 5 4 3 3 3 2 1 2 2 3 4 5 6 6 6 7 7 7 6 8 6 7 8 8 8 11 14 12 11 14 18 19 20
11 11 10 10 9 9 8 8 8 8 8 7 5 5 5 5 4 3 3 2 2 2 3 4 4 5 5 3 4 5 6 8 8 9 9 10 11 14 12 11 12 13 15
13 13 13 13 13 12 11 12 12 12 12 12 10 10 8 7 6 5 4 3 3 3 3 4 4 4 3 2 0 2 4 6 8 9 10 10 10 12 13 12 13 13 12
14 14 15 16 15 13 12 13 13 13 12 11 10 9 9 8 7 6 5 4 4 4 4 4 4 4 2 1 2 2 3 5 6 7 8 10 8 9 9 8 11 13 13
15 15 15 14 13 12 13 13 13 12 11 10 10 9 7 6 6 6 5 4 4 4 4 4 5 4 1 1 2 2 1 4 6 7 7 7 8 9 11 10 10 14 14
15 14 14 13 12 11 11 12 11 9 8 8 7 6 6 6 6 5 4 4 4 4 4 3 4 3 2 4 4 2 2 6 7 8 8 8 14 16 16 14 15 18 16
13 13 13 12 11 10 10 11 9 7 7 6 5 4 4 3 3 4 4 4 3 4 5 6 6 6 5 5 7 6 7 8 6 8 12 15 18 18 16 18 19 16 12
12 11 11 11 9 9 8 8 6 6 5 5 4 3 2 2 2 3 4 4 4 4 5 5 6 6 5 5 6 7 8 10 10 10 13 17 19 17 17 17 15 12 12
10 9 9 8 8 7 6 7 6 6 6 6 5 5 4 3 2 3 3 2 1 1 2 3 4 5 5 4 5 6 8 9 10 11 12 12 12 11 10 10 9 9 9
9 8 8 7 7 7 6 6 6 6 6 6 7 7 6 4 4 4 4 3 4 5 8 6 4 2 3 6 8 10 12 14 14 10 11 12 11 12 12 12 11 10 10
Wind_Direction
162 155 154 155 150 144 146 147 144 145 147 144 148 142 148 154 132 124 121 113 91 81 2 67 110 25 64 48 43 24 243 222 200 288 230 198 183 169 169 172 31 175 180
163 164 163 161 155 151 150 152 151 154 159 153 151 149 146 161 129 110 124 131 126 137 118 44 62 73 99 65 40 40 331 303 116 307 277 189 159 213 154 152 166 90 94
169 169 167 164 160 157 159 164 160 157 161 152 151 142 134 160 135 137 150 148 139 105 63 62 38 3 148 106 26 4 351 353 358 34 357 359 58 160 125 124 100 85 13
165 167 167 169 167 165 161 154 155 158 158 159 165 170 178 179 159 155 147 151 165 157 141 125 75 355 50 99 264 79 349 332 319 127 104 80 44 351 134 188 137 160 145
166 167 169 169 168 164 160 154 159 165 163 174 178 191 187 171 150 144 139 160 169 183 168 150 142 218 61 82 56 59 4 348 356 351 12 69 229 261 256 167 165 197 179
160 162 164 161 162 160 161 163 165 168 171 182 180 198 203 178 155 158 155 181 173 184 184 170 168 205 154 132 117 72 86 30 19 352 345 344 324 320 328 326 222 209 174
156 160 164 165 167 168 170 169 168 172 178 185 185 194 199 191 179 185 177 199 189 182 178 175 168 197 168 165 163 189 37 149 36 326 326 352 347 1 354 345 328 334 221
160 165 168 167 170 174 174 172 173 176 181 186 189 193 193 201 198 206 211 203 229 185 161 162 169 196 193 196 178 225 199 183 211 265 316 321 304 338 334 325 340 326 304
160 166 168 170 172 175 177 176 175 178 184 188 187 194 199 217 216 196 213 213 204 177 155 166 177 190 201 213 185 228 239 172 202 236 214 232 274 249 265 294 302 301 308
161 163 168 173 175 178 178 177 175 179 184 188 190 197 201 211 217 216 210 213 200 199 156 171 182 192 195 200 215 230 223 216 222 244 263 241 277 290 257 243 262 270 274
164 164 169 173 175 177 177 179 177 180 187 193 196 205 196 204 209 216 219 211 202 192 181 185 192 198 201 198 203 230 235 214 220 233 232 225 242 273 295 276 244 238 242
162 165 167 169 174 177 178 181 183 187 191 194 196 205 203 200 205 210 210 208 205 202 197 198 204 209 209 204 204 217 233 229 224 229 234 231 230 222 237 260 270 259 248
161 164 165 170 176 177 179 182 188 192 194 195 197 200 204 206 209 211 205 203 203 206 206 203 209 214 216 209 210 215 226 233 233 230 230 232 234 234 230 229 241 250 253
157 159 158 162 170 172 173 177 187 191 192 192 195 199 202 206 208 211 208 206 204 206 212 212 212 214 219 220 218 218 222 229 235 236 235 234 231 232 232 238 237 243 254
155 152 151 153 160 163 164 170 175 179 184 182 191 199 203 204 206 211 211 209 209 214 212 216 218 219 222 226 222 223 228 227 233 236 237 241 240 237 236 240 236 233 236
138 131 137 140 145 148 151 160 161 163 163 172 180 183 190 195 204 210 214 214 214 220 216 219 224 226 234 235 226 223 237 237 237 240 242 247 248 246 240 239 241 241 243
88 88 88 103 110 115 123 129 123 112 107 104 98 105 122 127 200 222 209 225 231 234 236 237 238 243 252 267 245 230 244 257 260 261 260 263 263 260 249 242 239 242 242
76 82 83 80 83 82 82 82 81 76 77 73 68 71 77 73 62 54 51 43 18 317 287 279 273 270 270 272 244 241 249 265 269 269 268 267 269 272 273 270 260 248 244
77 75 75 74 72 71 72 75 70 67 64 58 51 48 49 58 56 48 37 32 16 342 315 302 297 292 305 9 137 235 275 273 276 276 276 276 275 279 283 279 274 270 262
81 79 76 74 69 65 69 75 70 66 60 56 50 45 46 46 43 40 34 21 4 343 328 324 317 307 307 71 139 190 289 295 298 298 294 289 299 313 318 298 287 279 273
87 84 80 76 72 69 70 71 68 64 60 57 53 44 39 51 47 30 16 358 349 338 315 305 301 296 292 101 140 167 309 317 314 310 307 305 332 331 319 304 287 279 283
94 89 84 79 73 72 74 71 64 60 57 55 51 39 27 25 38 17 350 336 330 316 310 316 321 328 32 70 82 79 336 331 324 312 308 317 329 321 309 297 279 274 277
97 92 90 84 75 68 68 70 62 55 52 45 39 27 18 12 7 347 331 332 342 348 3 5 356 354 14 41 44 23 345 326 311 305 314 321 314 307 296 281 276 276 274
100 99 95 90 83 76 72 71 59 46 38 24 7 338 311 299 355 334 326 347 356 7 6 352 342 338 343 17 13 353 338 331 322 321 318 310 294 286 277 277 277 268 261
100 98 97 95 92 87 79 70 57 36 19 358 341 324 317 325 322 293 290 294 292 256 262 303 312 317 324 357 351 337 326 321 313 316 306 299 298 296 294 293 291 288 284
99 96 94 91 87 80 72 64 53 34 11 351 344 336 332 341 326 315 316 279 260 227 224 235 264 312 330 324 319 313 304 297 297 305 298 298 300 302 304 306 307 304 299
Height
1498 1501 1504 1508 1511 1514 1519 1523 1527 1532 1536 1539 1543 1546 1549 1551 1552 1552 1552 1553 1554 1555 1555 1556 1557 1558 1558 1559 1560 1561 1562 1563 1564 1565 1566 1567 1568 1568 1569 1570 1570 1571 1572
1498 1500 1503 1507 1510 1513 1517 1521 1526 1530 1534 1539 1542 1545 1548 1550 1551 1552 1552 1553 1554 1555 1556 1556 1557 1557 1558 1558 1559 1560 1561 1563 1564 1565 1565 1566 1568 1568 1569 1569 1570 1571 1572
1496 1500 1503 1506 1509 1512 1516 1520 1525 1529 1533 1537 1541 1545 1547 1549 1551 1551 1552 1553 1554 1554 1555 1555 1556 1557 1558 1558 1559 1560 1561 1562 1564 1564 1565 1565 1566 1567 1569 1569 1570 1570 1571
1494 1498 1501 1505 1508 1511 1515 1519 1523 1528 1532 1536 1540 1543 1546 1548 1550 1550 1551 1552 1554 1554 1555 1555 1556 1557 1558 1558 1559 1559 1561 1562 1563 1564 1564 1565 1565 1567 1568 1569 1569 1570 1570
1492 1496 1500 1503 1507 1511 1515 1518 1523 1527 1531 1535 1539 1542 1545 1547 1549 1550 1551 1552 1553 1554 1555 1555 1556 1556 1557 1558 1558 1559 1560 1561 1561 1563 1564 1565 1565 1566 1568 1568 1569 1569 1569
1491 1495 1499 1503 1506 1510 1514 1518 1522 1526 1530 1534 1538 1541 1544 1546 1548 1549 1550 1551 1552 1553 1554 1555 1555 1556 1557 1557 1557 1558 1559 1560 1561 1562 1563 1564 1565 1566 1566 1567 1567 1568 1568
1490 1494 1498 1502 1505 1509 1513 1517 1521 1525 1529 1532 1536 1539 1542 1544 1546 1548 1549 1550 1552 1552 1553 1554 1554 1555 1556 1556 1557 1557 1559 1559 1560 1561 1562 1563 1564 1564 1565 1566 1566 1566 1567
1489 1493 1497 1500 1504 1508 1512 1516 1520 1523 1527 1531 1534 1537 1540 1543 1545 1546 1548 1549 1551 1552 1552 1553 1553 1554 1555 1556 1556 1557 1558 1558 1559 1560 1561 1562 1562 1563 1564 1565 1565 1565 1565
1487 1492 1496 1500 1503 1507 1511 1515 1518 1522 1526 1529 1532 1535 1538 1541 1543 1545 1546 1548 1550 1551 1550 1551 1552 1552 1553 1554 1555 1556 1557 1558 1558 1559 1560 1560 1561 1562 1562 1563 1564 1565 1564
1486 1490 1495 1499 1502 1506 1510 1514 1517 1520 1524 1527 1530 1533 1536 1539 1541 1543 1544 1546 1547 1549 1549 1549 1550 1551 1551 1552 1553 1554 1555 1556 1557 1557 1558 1558 1559 1560 1561 1561 1561 1561 1562
1483 1488 1493 1497 1501 1505 1509 1512 1516 1519 1522 1525 1528 1531 1533 1536 1538 1539 1541 1543 1544 1546 1547 1547 1548 1549 1550 1550 1551 1552 1554 1554 1555 1555 1556 1556 1556 1556 1557 1558 1558 1558 1558
1481 1486 1490 1495 1499 1503 1507 1510 1514 1517 1520 1523 1526 1529 1531 1533 1535 1536 1538 1539 1541 1542 1543 1544 1545 1546 1547 1548 1549 1550 1551 1552 1552 1552 1553 1553 1553 1553 1554 1554 1554 1554 1555
1480 1484 1488 1493 1496 1501 1504 1508 1511 1515 1518 1520 1523 1525 1528 1530 1532 1533 1535 1536 1537 1539 1540 1541 1542 1543 1544 1545 1546 1547 1548 1548 1549 1549 1549 1550 1550 1550 1550 1550 1549 1550 1550
1478 1482 1486 1490 1495 1498 1502 1505 1509 1512 1515 1518 1520 1522 1525 1527 1529 1530 1532 1533 1534 1535 1536 1537 1539 1540 1541 1542 1543 1543 1544 1544 1545 1545 1545 1545 1545 1545 1545 1545 1545 1545 1544
1478 1481 1484 1488 1492 1496 1499 1503 1506 1509 1512 1514 1517 1518 1521 1523 1525 1527 1528 1529 1530 1532 1532 1534 1535 1536 1537 1538 1538 1539 1539 1539 1540 1540 1540 1540 1540 1540 1540 1540 1539 1539 1539
1478 1480 1483 1486 1490 1493 1497 1500 1503 1506 1509 1511 1513 1515 1517 1519 1521 1523 1525 1525 1526 1528 1529 1530 1531 1532 1533 1534 1535 1535 1535 1535 1535 1535 1535 1535 1534 1534 1534 1533 1533 1534 1533
1479 1481 1483 1486 1489 1492 1495 1497 1500 1504 1506 1509 1511 1513 1515 1516 1518 1520 1521 1522 1522 1524 1525 1526 1527 1528 1529 1529 1530 1530 1530 1529 1529 1529 1529 1528 1528 1528 1527 1525 1525 1525 1525
1482 1484 1486 1487 1489 1491 1494 1496 1498 1501 1503 1506 1508 1510 1511 1513 1514 1516 1517 1518 1519 1520 1521 1521 1522 1523 1523 1523 1523 1523 1523 1522 1522 1522 1522 1521 1520 1520 1520 1518 1517 1515 1515
1485 1487 1488 1489 1490 1492 1494 1496 1497 1499 1501 1504 1506 1507 1510 1510 1512 1513 1514 1515 1515 1516 1517 1517 1518 1518 1518 1517 1517 1517 1516 1515 1515 1515 1514 1513 1512 1512 1511 1509 1507 1506 1505
1488 1490 1491 1492 1493 1495 1497 1497 1500 1501 1503 1505 1507 1508 1509 1510 1510 1511 1512 1512 1512 1513 1514 1514 1514 1513 1513 1512 1512 1511 1510 1509 1509 1508 1507 1506 1505 1504 1502 1500 1498 1496 1495
1492 1493 1494 1496 1498 1500 1500 1501 1503 1504 1506 1507 1508 1510 1510 1510 1510 1510 1510 1511 1510 1510 1510 1511 1511 1510 1509 1508 1508 1506 1505 1504 1503 1501 1500 1499 1498 1495 1494 1492 1489 1487 1486
1496 1497 1498 1500 1502 1503 1504 1504 1505 1506 1508 1509 1509 1510 1510 1510 1510 1510 1510 1510 1509 1509 1509 1509 1509 1508 1507 1505 1504 1502 1501 1499 1497 1495 1494 1492 1490 1487 1485 1482 1480 1479 1476
1499 1501 1503 1504 1506 1507 1508 1508 1509 1509 1509 1510 1510 1510 1510 1510 1511 1511 1510 1510 1509 1509 1508 1508 1507 1506 1505 1503 1501 1499 1497 1495 1493 1490 1487 1484 1482 1479 1475 1473 1471 1469 1466
1503 1505 1506 1508 1509 1510 1511 1511 1512 1511 1512 1512 1512 1512 1512 1512 1511 1511 1510 1509 1508 1507 1506 1505 1505 1503 1502 1500 1497 1495 1492 1490 1487 1483 1479 1476 1473 1470 1467 1464 1461 1459 1457
1506 1508 1510 1511 1512 1513 1514 1514 1514 1514 1514 1514 1514 1513 1513 1512 1511 1510 1509 1508 1507 1506 1505 1503 1502 1500 1498 1496 1494 1491 1487 1484 1481 1476 1472 1468 1465 1462 1460 1457 1455 1452 1450
1508 1511 1512 1514 1515 1515 1516 1516 1516 1516 1515 1515 1514 1514 1513 1511 1510 1509 1508 1506 1505 1503 1502 1500 1498 1496 1494 1491 1488 1486 1482 1479 1475 1471 1466 1463 1460 1457 1454 1451 1448 1445 1443